リニア彗星

C/2011 UF305 ( LINEAR )

English version
Home page
Updated on June 15, 2014

---------------------------------------------------------------------

・ プロフィール

発見日 2011年10月31日
発見光度 18.1等
発見者 Lincoln Laboratory Near-Earth Asteroid Research project

・ 写真集

・ 軌道要素

Epoch 2012 July 12.0 TT = JDT 2456120.5
T 2012 July 22.16011 TT                                 MPC
q   2.1382024            (2000.0)            P               Q
z  -0.0003066      Peri.  121.99207     -0.29610146     -0.35829893
 +/-0.0000002      Node   297.43591     +0.07009046     +0.91632612
e   1.0006555      Incl.   93.96064     +0.95258136     -0.17879686
From 2150 observations 2011 July 25-2013 Apr. 22, mean residual 0".4.

・ 星図

・ 光度変化

        m1 = 2.5 + 5 logΔ + 22.5 log r

---------------------------------------------------------------------

軌道要素はM.P.E.C. 2014-J58に掲載されたものです。
星図はステラナビゲータ Ver.8 (アストロアーツ) で作成したものです。
光度グラフはComet for Windowsで作成したものです。

---------------------------------------------------------------------

Copyright(C) Seiichi Yoshida (comet@aerith.net). All rights reserved.